Tracking 18624 objects as of 29-April-2017
HD Live streaming from Space Station
objects crossing your sky now

SSU 2

Track SSU 2 now!
10-day predictions
SSU 2 is classified as:


NORAD ID: 8836
Int'l Code: 1976-038D
Perigee: 426.1 km
Apogee: 1,487.0 km
Inclination: 63.3 °
Period: 104.0 minutes
Semi major axis: 7327 km
RCS: Unknown
Launch date: April 30, 1976
Source: United States (US)
Launch site: AIR FORCE WESTERN TEST RANGE (AFWTR)
Your satellite tracking list
Your tracking list is empty





NASA's NSSDC Master Catalog

Two Line Element Set (TLE):
1 08836U 76038D   17104.86592903 0.00001500  00000-0  15239-3 0    06
2 08836  63.2805 115.2987 0723920 133.2887 226.7113 13.84086627    06
Source of the keplerian elements: McCants